Location: Home
(42.5358°N, 72.7383°W)
Time: 15:55:14
(UTC-05:00)

Vanguard 1 - Pass Details

Date: 04 December 2021
Orbit: 652 x 3830 km, 34.2° (Epoch: 19 January)

Event Time Altitude Azimuth Distance (km) Brightness Sun altitude
Rises 19:33:47 0° 172° (S) 6,333 14.1 -35.3°
Reaches altitude 10° 19:41:05 10° 151° (SSE) 5,963 13.8 -36.7°
Enters shadow 19:41:38 11° 149° (SSE) 5,954 13.7 -36.8°
Maximum altitude 19:49:39 15° 124° (SE) 6,119 - -38.2°
Drops below altitude 10° 19:59:15 10° 98° (E) 6,870 - -40.0°
Sets 20:08:54 0° 80° (E) 7,959 - -41.8°
